Regional Weather Roundup
Issued by NWS

Home | Current Version | Previous Version | Graphics & Text | Print | Product List | Glossary Off
Versions: 1 2 3 4 5 6 7 8 9 10 11 12 13 14 15 16 17 18 19 20 21 22 23 24 25 26 27 28 29 30 31 32 33 34 35 36 37 38 39 40 41 42 43 44 45 46 47 48 49 50

000
ASUS43 KDMX 282007
RWRIA

WEATHER ROUNDUP FOR IOWA
NATIONAL WEATHER SERVICE DES MOINES IA
300 PM CDT THU MAY 28 2015

NOTE: "FAIR" INDICATES FEW OR NO CLOUDS BELOW 12,000 FEET WITH NO
SIGNIFICANT WEATHER AND/OR OBSTRUCTIONS TO VISIBILITY.

* - THESE STATIONS ARE NOT NWS STATIONS...THUS NOT UNDER NWS
QUALITY CONTROL.  THEY ALSO DO NOT REPORT WEATHER SUCH
AS PRECIPITATION OR FOG.

IAZ001>003-012>014-020>022-031>034-043>046-282100-
   NORTHWEST IOWA

CITY           SKY/WX    TMP DP  RH WIND       PRES   REMARKS
CARROLL *      SUNNY     70  63  78 S17G25    30.04S
CHEROKEE *     PTSUNNY   75  59  57 S17G24    30.00S
DENISON *      MOSUNNY   70  64  83 S10       30.01F
LE MARS *      MOSUNNY   77  59  53 S17G26    29.99R
ORANGE CITY *  SUNNY     77  55  47 S20G25    29.98S
SHELDON *      MOSUNNY   81  61  50 S22       29.96F HX  81
SIOUX CITY     LGT RAIN  71  60  68 S14       29.99F
SPENCER        MOSUNNY   80  54  40 S22       30.00F HX  80
STORM LAKE *   PTSUNNY   77  59  53 S23       30.02F
$$

IAZ055>058-069>071-079>083-090>094-282100-
   SOUTHWEST IOWA

CITY           SKY/WX    TMP DP  RH WIND       PRES   REMARKS
ATLANTIC *     CLOUDY    66  64  94 S15G22    30.04S FOG
AUDUBON *      LGT RAIN  70  63  78 SE14G22   30.05F
CLARINDA *     CLOUDY    68  66  94 S7        30.07F
COUNCIL BLFS * MOSUNNY   68  66  94 S14       30.03S
CRESTON *      PTSUNNY   68  64  88 S15       30.07F
HARLAN  *      DRIZZLE   66  66 100 SW13G18   30.06F
LAMONI         CLOUDY    75  64  68 SE9       30.07F
RED OAK *      CLOUDY    68  66  94 S9G15     30.04F
SHENANDOAH *   PTSUNNY   70  64  83 S13G20    30.05S
$$

IAZ047>049-059>061-072>074-084-282100-
   CENTRAL IOWA

CITY           SKY/WX    TMP DP  RH WIND       PRES   REMARKS
AMES           PTSUNNY   78  56  46 SE18G25   30.05F
ANKENY *       CLOUDY    73  61  64 S13G21    30.06F
CHARITON *     MOSUNNY   70  64  83 SE7       30.06F
DES MOINES     LGT RAIN  73  61  65 S10       30.06F
GRINNELL*      CLOUDY    75  57  53 S15G22    30.09S
KNOXVILLE *    SUNNY     73  61  64 SE8       30.05F
MARSHALLTOWN   PTSUNNY   79  58  48 S21       30.06F HX  80
PELLA *        CLOUDY    75  63  64 S8        30.08F
PERRY *        LGT RAIN  72  63  73 S16       30.05F
$$

IAZ004>006-015-016-023>025-035-036-282100-
   NORTH CENTRAL IOWA

CITY           SKY/WX    TMP DP  RH WIND       PRES   REMARKS
ALGONA *       SUNNY     81 -29   1 S20G29    30.03F
CLARION *      SUNNY     81  50  34 S22G31    30.04F HX  80
ESTHERVILLE    MOSUNNY   79  54  41 S20G31    30.01F
FORT DODGE *   MOSUNNY   79  57  47 SE12G20   30.05S HX  80
MASON CITY     PTSUNNY   81  53  37 S20G31    30.06F HX  80
FOREST CITY *  SUNNY     79  50  36 S16G28    30.04F
IOWA FALLS *     N/A     81  54  39 S17G25    30.06F HX  80
$$

IAZ007>011-017>019-026>030-037>042-050>054-066-282100-
   NORTHEAST IOWA

CITY           SKY/WX    TMP DP  RH WIND       PRES   REMARKS
CEDAR RAPIDS   MOSUNNY   80  54  40 S15G24    30.08F HX  80
CHARLES CITY * MOSUNNY   81  54  39 S16G25    30.08S HX  80
CLINTON *      MOSUNNY   81  55  41 SE16G23   30.14F HX  80
DECORAH *      PTSUNNY   79  54  41 S14       30.09F
DUBUQUE        MOSUNNY   79  55  43 S12G21    30.12F
MONTICELLO *   SUNNY     81  55  41 SE14G22   30.10F HX  80
OELWEIN *      SUNNY     81  55  41 S15G22    30.10F HX  80
WATERLOO       MOSUNNY   81  55  40 S17G24    30.06F HX  81
$$

IAZ064-065-067-068-078-282100-
   EAST CENTRAL IOWA

CITY           SKY/WX    TMP DP  RH WIND       PRES   REMARKS
DAVENPORT      MOSUNNY   83  51  33 SE16      30.11F HX  81
IOWA CITY      PTSUNNY   78  55  44 S14       30.10F
MT. PLEASANT * MOSUNNY   81  55  41 SE10G17   30.09F HX  80
MUSCATINE *    SUNNY     81  52  36 S16G22    30.09F HX  80
QUAD CITIES    MOSUNNY   80  52  37 S10G21    30.10F HX  80
$$

IAZ062-063-075>077-085>089-095>099-282100-
   SOUTHEAST IOWA

CITY           SKY/WX    TMP DP  RH WIND       PRES   REMARKS
BURLINGTON     MOSUNNY   81  60  48 S10       30.09F HX  82
FAIRFIELD *    SUNNY     79  59  50 SE9G17    30.08F HX  80
FORT MADISON * SUNNY     81  61  50 SE10      30.10F HX  81
KEOKUK *       SUNNY     81  59  47 SE14      30.08F HX  81
OSKALOOSA *      N/A     77  57  50 S13       30.08F
CENTERVILLE *  MOSUNNY   73  73 100 E8        30.08F
OTTUMWA        PTSUNNY   76  60  57 S14G20    30.08F
WASHINGTON *   SUNNY     82  55  39 S16       30.10F HX  82
$$

ABBREVIATIONS USED IN REMARKS
   TC - TEMPERATURES IN CELSIUS
  WCI - WIND CHILL INDEX
   HX - HEAT INDEX
  VSB - VISIBILITY
$$




USA.gov is the U.S. government's official web portal to all federal, state and local government web resources and services.